Time,TemperatureF,DewpointF,PressureIn,WindDirection,WindDirectionDegrees,WindSpeedMPH,WindSpeedGustMPH,Humidity,HourlyPrecipIn,Conditions,Clouds,dailyrainin,SoftwareType,DateUTC
2013-07-30 00:05:00,72.3,72.3,30.01,WSW,253,5.0,7.0,100,0.00,,,0.00,Wunderground v.1.15,2013-07-30 04:05:00,
2013-07-30 00:10:00,72.5,72.5,30.01,WSW,253,6.0,6.0,100,0.00,,,0.00,Wunderground v.1.15,2013-07-30 04:10:00,
2013-07-30 00:15:00,72.3,72.3,30.01,WSW,253,5.0,6.0,100,0.00,,,0.00,Wunderground v.1.15,2013-07-30 04:15:00,
2013-07-30 00:20:00,72.3,72.3,30.01,WSW,253,4.0,6.0,100,0.00,,,0.00,Wunderground v.1.15,2013-07-30 04:20:00,
2013-07-30 00:25:00,72.3,72.3,30.01,WSW,254,5.0,6.0,100,0.00,,,0.00,Wunderground v.1.15,2013-07-30 04:25:00,
2013-07-30 00:35:00,72.3,72.3,30.00,WSW,253,6.0,8.0,100,0.00,,,0.00,Wunderground v.1.15,2013-07-30 04:35:00,
2013-07-30 00:40:00,72.3,72.3,30.00,WSW,254,5.0,5.0,100,0.00,,,0.00,Wunderground v.1.15,2013-07-30 04:40:00,
2013-07-30 00:50:00,72.0,72.0,30.00,WSW,256,6.0,6.0,100,0.00,,,0.00,Wunderground v.1.15,2013-07-30 04:50:00,
2013-07-30 00:55:00,72.0,72.0,30.00,WSW,256,6.0,6.0,100,0.00,,,0.00,Wunderground v.1.15,2013-07-30 04:55:00,
2013-07-30 01:05:00,71.8,71.8,29.99,WSW,256,5.0,5.0,100,0.00,,,0.00,Wunderground v.1.15,2013-07-30 05:05:00,
2013-07-30 01:10:00,71.8,71.8,29.99,WSW,256,5.0,5.0,100,0.00,,,0.00,Wunderground v.1.15,2013-07-30 05:10:00,
2013-07-30 01:20:00,71.8,71.8,29.99,WSW,256,3.0,3.0,100,0.00,,,0.00,Wunderground v.1.15,2013-07-30 05:20:00,
2013-07-30 01:25:00,71.6,71.6,29.99,WSW,256,3.0,3.0,100,0.00,,,0.00,Wunderground v.1.15,2013-07-30 05:25:00,
2013-07-30 01:35:00,71.6,71.6,29.99,WSW,256,4.0,5.0,100,0.00,,,0.00,Wunderground v.1.15,2013-07-30 05:35:00,
2013-07-30 01:40:00,71.8,71.8,29.99,WSW,256,4.0,4.0,100,0.00,,,0.00,Wunderground v.1.15,2013-07-30 05:40:00,
2013-07-30 01:50:00,72.0,72.0,29.99,WSW,256,4.0,6.0,100,0.00,,,0.00,Wunderground v.1.15,2013-07-30 05:50:00,
2013-07-30 01:55:00,72.0,72.0,29.99,WSW,256,3.0,6.0,100,0.00,,,0.00,Wunderground v.1.15,2013-07-30 05:55:00,
2013-07-30 02:05:00,72.0,72.0,29.99,WSW,256,3.0,5.0,100,0.00,,,0.00,Wunderground v.1.15,2013-07-30 06:05:00,
2013-07-30 02:10:00,72.0,72.0,29.99,WSW,256,4.0,5.0,100,0.00,,,0.00,Wunderground v.1.15,2013-07-30 06:10:00,
2013-07-30 02:20:00,71.8,71.8,30.00,WSW,256,3.0,3.0,100,0.00,,,0.00,Wunderground v.1.15,2013-07-30 06:20:00,
2013-07-30 02:25:00,71.8,71.8,30.00,WSW,256,3.0,3.0,100,0.00,,,0.00,Wunderground v.1.15,2013-07-30 06:25:00,
2013-07-30 02:30:00,71.6,71.6,30.00,WSW,256,3.0,3.0,100,0.00,,,0.00,Wunderground v.1.15,2013-07-30 06:30:00,
2013-07-30 02:40:00,71.5,71.5,29.99,WSW,256,2.0,5.0,100,0.00,,,0.00,Wunderground v.1.15,2013-07-30 06:40:00,
2013-07-30 02:50:00,71.1,71.1,29.99,WSW,256,3.0,3.0,100,0.00,,,0.00,Wunderground v.1.15,2013-07-30 06:50:00,
2013-07-30 02:55:00,70.9,70.9,29.99,WSW,256,3.0,3.0,100,0.00,,,0.00,Wunderground v.1.15,2013-07-30 06:55:00,
2013-07-30 03:05:00,70.8,70.8,29.99,WSW,256,2.0,4.0,100,0.00,,,0.00,Wunderground v.1.15,2013-07-30 07:05:00,
2013-07-30 03:10:00,70.6,70.6,29.99,WSW,256,2.0,3.0,100,0.00,,,0.00,Wunderground v.1.15,2013-07-30 07:10:00,
2013-07-30 03:20:00,70.3,70.3,29.98,WSW,256,3.0,3.0,100,0.00,,,0.00,Wunderground v.1.15,2013-07-30 07:20:00,
2013-07-30 03:25:00,70.3,70.3,29.98,WSW,256,3.0,3.0,100,0.00,,,0.00,Wunderground v.1.15,2013-07-30 07:25:00,
2013-07-30 03:35:00,70.1,70.1,29.98,WSW,256,2.0,3.0,100,0.00,,,0.00,Wunderground v.1.15,2013-07-30 07:35:00,
2013-07-30 03:40:00,69.9,69.9,29.98,WSW,256,1.0,2.0,100,0.00,,,0.00,Wunderground v.1.15,2013-07-30 07:40:00,
2013-07-30 03:50:00,69.8,69.8,29.98,WSW,256,2.0,2.0,100,0.00,,,0.00,Wunderground v.1.15,2013-07-30 07:50:00,
2013-07-30 03:55:00,69.6,69.6,29.98,WSW,256,1.0,3.0,100,0.00,,,0.00,Wunderground v.1.15,2013-07-30 07:55:00,
2013-07-30 04:05:00,69.4,69.4,29.98,WSW,256,1.0,1.0,100,0.00,,,0.00,Wunderground v.1.15,2013-07-30 08:05:00,
2013-07-30 04:10:00,69.3,69.3,29.98,WSW,256,1.0,3.0,100,0.00,,,0.00,Wunderground v.1.15,2013-07-30 08:10:00,
2013-07-30 04:20:00,69.1,69.1,29.98,WSW,256,1.0,2.0,100,0.00,,,0.00,Wunderground v.1.15,2013-07-30 08:20:00,
2013-07-30 04:25:00,69.1,69.1,29.98,WSW,256,3.0,5.0,100,0.00,,,0.00,Wunderground v.1.15,2013-07-30 08:25:00,
2013-07-30 04:35:00,69.1,69.1,29.98,WSW,256,4.0,6.0,100,0.00,,,0.00,Wunderground v.1.15,2013-07-30 08:35:00,
2013-07-30 04:40:00,69.1,69.1,29.98,West,277,5.0,7.0,100,0.00,,,0.00,Wunderground v.1.15,2013-07-30 08:40:00,
2013-07-30 04:50:00,69.1,69.1,29.98,NW,318,6.0,6.0,100,0.00,,,0.00,Wunderground v.1.15,2013-07-30 08:50:00,
2013-07-30 04:55:00,69.3,69.3,29.98,NW,323,5.0,6.0,100,0.00,,,0.00,Wunderground v.1.15,2013-07-30 08:55:00,
2013-07-30 05:05:00,69.1,69.1,29.99,North,3,6.0,7.0,100,0.00,,,0.00,Wunderground v.1.15,2013-07-30 09:05:00,
2013-07-30 05:10:00,68.8,68.8,29.99,North,4,7.0,7.0,100,0.00,,,0.00,Wunderground v.1.15,2013-07-30 09:10:00,
2013-07-30 05:20:00,68.3,68.3,29.99,North,3,5.0,10.0,100,0.00,,,0.00,Wunderground v.1.15,2013-07-30 09:20:00,
2013-07-30 05:25:00,67.9,67.9,29.99,North,6,6.0,10.0,100,0.00,,,0.00,Wunderground v.1.15,2013-07-30 09:25:00,
2013-07-30 05:35:00,67.4,67.4,30.00,North,6,5.0,6.0,100,0.00,,,0.00,Wunderground v.1.15,2013-07-30 09:35:00,
2013-07-30 05:40:00,67.4,67.4,30.00,North,9,5.0,10.0,100,0.00,,,0.00,Wunderground v.1.15,2013-07-30 09:40:00,
2013-07-30 05:50:00,66.9,66.9,30.00,North,7,7.0,7.0,100,0.00,,,0.00,Wunderground v.1.15,2013-07-30 09:50:00,
2013-07-30 05:55:00,66.9,66.9,30.00,North,7,6.0,7.0,100,0.00,,,0.00,Wunderground v.1.15,2013-07-30 09:55:00,
2013-07-30 06:05:00,66.9,66.9,30.00,North,7,4.0,7.0,100,0.00,,,0.00,Wunderground v.1.15,2013-07-30 10:05:00,
2013-07-30 06:10:00,66.9,66.9,30.00,North,7,4.0,4.0,100,0.00,,,0.00,Wunderground v.1.15,2013-07-30 10:10:00,
2013-07-30 06:20:00,66.6,66.6,30.00,North,4,6.0,6.0,100,0.00,,,0.00,Wunderground v.1.15,2013-07-30 10:20:00,
2013-07-30 06:25:00,66.4,66.4,30.00,North,357,5.0,7.0,100,0.00,,,0.00,Wunderground v.1.15,2013-07-30 10:25:00,
2013-07-30 06:35:00,66.4,-99.9,30.00,North,0,6.0,10.0,255,0.00,,,0.00,Wunderground v.1.15,2013-07-30 10:35:00,
2013-07-30 06:40:00,66.3,66.3,30.00,North,9,7.0,14.0,100,0.00,,,0.00,Wunderground v.1.15,2013-07-30 10:40:00,
2013-07-30 06:50:00,66.3,66.3,30.01,North,9,7.0,7.0,100,0.00,,,0.00,Wunderground v.1.15,2013-07-30 10:50:00,
2013-07-30 06:55:00,66.1,66.1,30.01,North,10,6.0,7.0,100,0.00,,,0.00,Wunderground v.1.15,2013-07-30 10:55:00,
2013-07-30 07:05:00,66.1,66.1,30.01,North,10,6.0,12.0,100,0.00,,,0.00,Wunderground v.1.15,2013-07-30 11:05:00,
2013-07-30 07:10:00,66.0,66.0,30.01,NNE,13,6.0,6.0,100,0.00,,,0.00,Wunderground v.1.15,2013-07-30 11:10:00,
2013-07-30 07:20:00,66.1,66.1,30.01,NNE,13,5.0,5.0,100,0.00,,,0.00,Wunderground v.1.15,2013-07-30 11:20:00,
2013-07-30 07:25:00,66.3,66.3,30.01,NNE,13,4.0,6.0,100,0.00,,,0.00,Wunderground v.1.15,2013-07-30 11:25:00,
2013-07-30 07:35:00,66.4,66.4,30.02,NNE,13,6.0,6.0,100,0.00,,,0.00,Wunderground v.1.15,2013-07-30 11:35:00,
2013-07-30 07:40:00,66.6,66.6,30.02,NNE,13,5.0,5.0,100,0.00,,,0.00,Wunderground v.1.15,2013-07-30 11:40:00,
2013-07-30 07:50:00,66.8,66.8,30.02,North,10,4.0,4.0,100,0.00,,,0.00,Wunderground v.1.15,2013-07-30 11:50:00,
2013-07-30 07:55:00,66.9,66.9,30.02,North,10,4.0,6.0,100,0.00,,,0.00,Wunderground v.1.15,2013-07-30 11:55:00,
2013-07-30 08:05:00,67.3,67.3,30.02,North,4,5.0,5.0,100,0.00,,,0.00,Wunderground v.1.15,2013-07-30 12:05:00,
2013-07-30 08:10:00,67.6,67.6,30.02,North,9,5.0,7.0,100,0.00,,,0.00,Wunderground v.1.15,2013-07-30 12:10:00,
2013-07-30 08:20:00,68.4,68.4,30.03,North,7,5.0,8.0,100,0.00,,,0.00,Wunderground v.1.15,2013-07-30 12:20:00,
2013-07-30 08:25:00,68.8,68.8,30.03,North,359,6.0,8.0,100,0.00,,,0.00,Wunderground v.1.15,2013-07-30 12:25:00,
2013-07-30 08:34:00,69.1,69.1,30.03,North,3,6.0,6.0,100,0.00,,,0.00,Wunderground v.1.15,2013-07-30 12:34:00,
2013-07-30 08:40:00,69.6,69.6,30.03,North,359,7.0,7.0,100,0.00,,,0.00,Wunderground v.1.15,2013-07-30 12:40:00,
2013-07-30 08:50:00,70.8,70.8,30.02,North,353,6.0,8.0,100,0.00,,,0.00,Wunderground v.1.15,2013-07-30 12:50:00,
2013-07-30 08:55:00,70.9,70.9,30.02,North,356,6.0,8.0,100,0.00,,,0.00,Wunderground v.1.15,2013-07-30 12:55:00,
2013-07-30 09:05:00,71.6,71.6,30.03,North,6,6.0,7.0,100,0.00,,,0.00,Wunderground v.1.15,2013-07-30 13:05:00,
2013-07-30 09:10:00,72.0,72.0,30.03,North,0,6.0,6.0,100,0.00,,,0.00,Wunderground v.1.15,2013-07-30 13:10:00,
2013-07-30 09:20:00,72.7,72.7,30.03,NNE,14,8.0,8.0,100,0.00,,,0.00,Wunderground v.1.15,2013-07-30 13:20:00,
2013-07-30 09:25:00,72.8,72.8,30.03,North,4,8.0,8.0,100,0.00,,,0.00,Wunderground v.1.15,2013-07-30 13:25:00,
2013-07-30 09:35:00,73.7,73.7,30.03,North,4,4.0,7.0,100,0.00,,,0.00,Wunderground v.1.15,2013-07-30 13:35:00,
2013-07-30 09:40:00,74.0,74.0,30.03,North,357,4.0,4.0,100,0.00,,,0.00,Wunderground v.1.15,2013-07-30 13:40:00,
2013-07-30 09:50:00,74.6,74.6,30.04,NNW,346,6.0,6.0,100,0.00,,,0.00,Wunderground v.1.15,2013-07-30 13:50:00,
2013-07-30 09:55:00,74.6,74.6,30.04,NNW,339,5.0,6.0,100,0.00,,,0.00,Wunderground v.1.15,2013-07-30 13:55:00,
2013-07-30 10:05:00,74.7,-99.9,30.04,North,352,6.0,10.0,255,0.00,,,0.00,Wunderground v.1.15,2013-07-30 14:05:00,
2013-07-30 10:10:00,74.6,74.6,30.04,North,359,7.0,8.0,100,0.00,,,0.00,Wunderground v.1.15,2013-07-30 14:10:00,
2013-07-30 10:20:00,75.1,75.1,30.04,North,356,5.0,10.0,100,0.00,,,0.00,Wunderground v.1.15,2013-07-30 14:20:00,
2013-07-30 10:25:00,75.4,75.4,30.04,North,0,5.0,10.0,100,0.00,,,0.00,Wunderground v.1.15,2013-07-30 14:25:00,
2013-07-30 10:35:00,74.9,74.9,30.04,North,6,7.0,12.0,100,0.00,,,0.00,Wunderground v.1.15,2013-07-30 14:35:00,
2013-07-30 10:40:00,74.7,74.7,30.04,North,10,7.0,7.0,100,0.00,,,0.00,Wunderground v.1.15,2013-07-30 14:40:00,
2013-07-30 10:50:00,75.4,75.4,30.04,North,359,6.0,6.0,100,0.00,,,0.00,Wunderground v.1.15,2013-07-30 14:50:00,
2013-07-30 10:55:00,75.4,75.4,30.04,North,359,7.0,8.0,100,0.00,,,0.00,Wunderground v.1.15,2013-07-30 14:55:00,
2013-07-30 11:05:00,75.8,75.8,30.05,North,350,5.0,7.0,100,0.00,,,0.00,Wunderground v.1.15,2013-07-30 15:05:00,
2013-07-30 11:10:00,76.0,76.0,30.05,NNW,340,6.0,8.0,100,0.00,,,0.00,Wunderground v.1.15,2013-07-30 15:10:00,
2013-07-30 11:20:00,75.8,75.8,30.04,North,352,6.0,6.0,100,0.00,,,0.00,Wunderground v.1.15,2013-07-30 15:20:00,
2013-07-30 11:25:00,76.0,76.0,30.04,North,350,5.0,10.0,100,0.00,,,0.00,Wunderground v.1.15,2013-07-30 15:25:00,
2013-07-30 11:35:00,76.3,76.3,30.04,North,350,6.0,7.0,100,0.00,,,0.00,Wunderground v.1.15,2013-07-30 15:35:00,
2013-07-30 11:40:00,76.1,76.1,30.04,North,11,6.0,6.0,100,0.00,,,0.00,Wunderground v.1.15,2013-07-30 15:40:00,
2013-07-30 11:50:00,76.0,76.0,30.04,NNW,347,6.0,9.0,100,0.00,,,0.00,Wunderground v.1.15,2013-07-30 15:50:00,
2013-07-30 11:55:00,75.6,75.6,30.04,North,4,7.0,9.0,100,0.00,,,0.00,Wunderground v.1.15,2013-07-30 15:55:00,
2013-07-30 12:05:00,76.3,76.3,30.03,NNW,346,6.0,11.0,100,0.00,,,0.00,Wunderground v.1.15,2013-07-30 16:05:00,
2013-07-30 12:10:00,76.3,76.3,30.03,NNW,347,7.0,7.0,100,0.00,,,0.00,Wunderground v.1.15,2013-07-30 16:10:00,
2013-07-30 12:20:00,76.1,76.1,30.04,North,11,8.0,8.0,100,0.00,,,0.00,Wunderground v.1.15,2013-07-30 16:20:00,
2013-07-30 12:25:00,76.1,76.1,30.04,North,3,7.0,8.0,100,0.00,,,0.00,Wunderground v.1.15,2013-07-30 16:25:00,
2013-07-30 12:35:00,77.0,77.0,30.04,North,10,6.0,6.0,100,0.00,,,0.00,Wunderground v.1.15,2013-07-30 16:35:00,
2013-07-30 12:40:00,76.8,76.8,30.04,North,6,6.0,6.0,100,0.00,,,0.00,Wunderground v.1.15,2013-07-30 16:40:00,
2013-07-30 12:50:00,77.4,77.4,30.03,NNW,345,5.0,10.0,100,0.00,,,0.00,Wunderground v.1.15,2013-07-30 16:50:00,
2013-07-30 12:55:00,77.2,77.2,30.03,North,7,6.0,11.0,100,0.00,,,0.00,Wunderground v.1.15,2013-07-30 16:55:00,
2013-07-30 13:05:00,77.0,77.0,30.03,North,349,8.0,8.0,100,0.00,,,0.00,Wunderground v.1.15,2013-07-30 17:05:00,
2013-07-30 13:10:00,77.6,77.6,30.03,NNE,18,5.0,5.0,100,0.00,,,0.00,Wunderground v.1.15,2013-07-30 17:10:00,
2013-07-30 13:20:00,77.7,77.7,30.03,North,4,6.0,6.0,100,0.00,,,0.00,Wunderground v.1.15,2013-07-30 17:20:00,
2013-07-30 13:25:00,77.6,77.6,30.03,North,7,7.0,7.0,100,0.00,,,0.00,Wunderground v.1.15,2013-07-30 17:25:00,
2013-07-30 13:35:00,78.1,78.1,30.03,North,10,5.0,7.0,100,0.00,,,0.00,Wunderground v.1.15,2013-07-30 17:35:00,
2013-07-30 13:40:00,78.6,78.6,30.03,North,10,2.0,11.0,100,0.00,,,0.00,Wunderground v.1.15,2013-07-30 17:40:00,
2013-07-30 13:50:00,78.3,78.3,30.03,North,9,4.0,4.0,100,0.00,,,0.00,Wunderground v.1.15,2013-07-30 17:50:00,
2013-07-30 13:55:00,78.1,78.1,30.03,North,10,2.0,7.0,100,0.00,,,0.00,Wunderground v.1.15,2013-07-30 17:55:00,
2013-07-30 14:05:00,78.8,78.8,30.03,North,6,3.0,3.0,100,0.00,,,0.00,Wunderground v.1.15,2013-07-30 18:05:00,
2013-07-30 14:10:00,79.0,79.0,30.03,North,6,1.0,2.0,100,0.00,,,0.00,Wunderground v.1.15,2013-07-30 18:10:00,
2013-07-30 14:20:00,78.8,78.8,30.03,North,6,2.0,2.0,100,0.00,,,0.00,Wunderground v.1.15,2013-07-30 18:20:00,
2013-07-30 14:25:00,78.6,78.6,30.03,North,6,1.0,5.0,100,0.00,,,0.00,Wunderground v.1.15,2013-07-30 18:25:00,
2013-07-30 14:35:00,79.0,79.0,30.03,North,6,1.0,1.0,100,0.00,,,0.00,Wunderground v.1.15,2013-07-30 18:35:00,
2013-07-30 14:40:00,79.2,-99.9,30.03,North,4,1.0,1.0,255,0.00,,,0.00,Wunderground v.1.15,2013-07-30 18:40:00,
2013-07-30 14:50:00,79.9,79.9,30.02,North,359,3.0,3.0,100,0.00,,,0.00,Wunderground v.1.15,2013-07-30 18:50:00,
2013-07-30 14:55:00,79.8,79.8,30.02,North,359,2.0,3.0,100,0.00,,,0.00,Wunderground v.1.15,2013-07-30 18:55:00,
2013-07-30 15:05:00,79.4,79.4,30.02,North,359,2.0,3.0,100,0.00,,,0.00,Wunderground v.1.15,2013-07-30 19:05:00,
2013-07-30 15:10:00,77.2,77.2,30.02,North,359,4.0,5.0,100,0.00,,,0.00,Wunderground v.1.15,2013-07-30 19:10:00,
2013-07-30 15:20:00,76.0,76.0,30.02,NNE,18,4.0,4.0,100,0.00,,,0.00,Wunderground v.1.15,2013-07-30 19:20:00,
2013-07-30 15:25:00,75.8,75.8,30.02,NNE,18,3.0,5.0,100,0.00,,,0.00,Wunderground v.1.15,2013-07-30 19:25:00,
2013-07-30 15:35:00,75.4,75.4,30.03,NNE,18,3.0,3.0,100,0.00,,,0.00,Wunderground v.1.15,2013-07-30 19:35:00,
2013-07-30 15:40:00,75.4,75.4,30.03,NNE,18,2.0,2.0,100,0.00,,,0.00,Wunderground v.1.15,2013-07-30 19:40:00,
2013-07-30 15:50:00,74.9,74.9,30.03,NNE,18,3.0,3.0,100,0.00,,,0.00,Wunderground v.1.15,2013-07-30 19:50:00,
2013-07-30 15:55:00,74.7,74.7,30.03,NNE,18,2.0,3.0,100,0.00,,,0.00,Wunderground v.1.15,2013-07-30 19:55:00,
2013-07-30 16:05:00,74.7,74.7,30.02,NNE,18,3.0,3.0,100,0.00,,,0.00,Wunderground v.1.15,2013-07-30 20:05:00,
2013-07-30 16:10:00,74.7,74.7,30.02,NNE,18,3.0,3.0,100,0.00,,,0.00,Wunderground v.1.15,2013-07-30 20:10:00,
2013-07-30 16:20:00,74.9,74.9,30.03,North,0,2.0,2.0,100,0.00,,,0.00,Wunderground v.1.15,2013-07-30 20:20:00,
2013-07-30 16:25:00,74.7,74.7,30.03,North,0,3.0,3.0,100,0.00,,,0.00,Wunderground v.1.15,2013-07-30 20:25:00,
2013-07-30 16:35:00,74.6,74.6,30.02,NNE,14,3.0,6.0,100,0.00,,,0.00,Wunderground v.1.15,2013-07-30 20:35:00,
2013-07-30 16:40:00,74.2,74.2,30.02,NNE,14,3.0,5.0,100,0.00,,,0.00,Wunderground v.1.15,2013-07-30 20:40:00,
2013-07-30 16:50:00,74.0,74.0,30.03,NNE,14,3.0,3.0,100,0.00,,,0.00,Wunderground v.1.15,2013-07-30 20:50:00,
2013-07-30 16:55:00,74.2,74.2,30.03,NNE,14,3.0,3.0,100,0.00,,,0.00,Wunderground v.1.15,2013-07-30 20:55:00,
2013-07-30 17:05:00,73.9,73.9,30.02,NNE,28,3.0,3.0,100,0.00,,,0.00,Wunderground v.1.15,2013-07-30 21:05:00,
2013-07-30 17:10:00,73.5,73.5,30.02,NNE,28,4.0,5.0,100,0.00,,,0.00,Wunderground v.1.15,2013-07-30 21:10:00,
2013-07-30 17:20:00,73.7,73.7,30.02,NNE,28,3.0,3.0,100,0.00,,,0.00,Wunderground v.1.15,2013-07-30 21:20:00,
2013-07-30 17:25:00,73.3,73.3,30.02,NE,35,3.0,4.0,100,0.00,,,0.00,Wunderground v.1.15,2013-07-30 21:25:00,
2013-07-30 17:35:00,72.7,72.7,30.02,NE,35,3.0,4.0,100,0.00,,,0.00,Wunderground v.1.15,2013-07-30 21:35:00,
2013-07-30 17:40:00,72.3,72.3,30.02,NE,35,4.0,4.0,100,0.00,,,0.00,Wunderground v.1.15,2013-07-30 21:40:00,
2013-07-30 17:50:00,72.0,72.0,30.02,NE,35,3.0,4.0,100,0.00,,,0.00,Wunderground v.1.15,2013-07-30 21:50:00,
2013-07-30 17:55:00,71.8,71.8,30.02,NE,35,3.0,4.0,100,0.00,,,0.00,Wunderground v.1.15,2013-07-30 21:55:00,
2013-07-30 18:05:00,71.5,71.5,30.03,NE,35,2.0,4.0,100,0.00,,,0.00,Wunderground v.1.15,2013-07-30 22:05:00,
2013-07-30 18:10:00,71.3,71.3,30.03,NE,35,3.0,3.0,100,0.00,,,0.00,Wunderground v.1.15,2013-07-30 22:10:00,
2013-07-30 18:20:00,70.3,70.3,30.03,NE,35,3.0,4.0,100,0.00,,,0.00,Wunderground v.1.15,2013-07-30 22:20:00,
2013-07-30 18:25:00,69.6,69.6,30.03,NE,40,4.0,5.0,100,0.00,,,0.00,Wunderground v.1.15,2013-07-30 22:25:00,
2013-07-30 18:35:00,69.3,69.3,30.03,NE,40,4.0,5.0,100,0.00,,,0.00,Wunderground v.1.15,2013-07-30 22:35:00,
2013-07-30 18:40:00,69.4,69.4,30.03,NE,40,3.0,4.0,100,0.00,,,0.00,Wunderground v.1.15,2013-07-30 22:40:00,
2013-07-30 18:50:00,69.6,69.6,30.03,NE,40,4.0,5.0,100,0.00,,,0.00,Wunderground v.1.15,2013-07-30 22:50:00,
2013-07-30 18:55:00,69.8,69.8,30.03,NE,40,4.0,5.0,100,0.00,,,0.00,Wunderground v.1.15,2013-07-30 22:55:00,
2013-07-30 19:05:00,69.8,69.8,30.03,NE,40,3.0,3.0,100,0.00,,,0.00,Wunderground v.1.15,2013-07-30 23:05:00,
2013-07-30 19:10:00,69.6,69.6,30.03,NE,40,3.0,3.0,100,0.00,,,0.00,Wunderground v.1.15,2013-07-30 23:10:00,
2013-07-30 19:20:00,69.6,69.6,30.04,NE,40,2.0,2.0,100,0.00,,,0.00,Wunderground v.1.15,2013-07-30 23:20:00,
2013-07-30 19:25:00,69.4,69.4,30.04,NE,40,1.0,2.0,100,0.00,,,0.00,Wunderground v.1.15,2013-07-30 23:25:00,
2013-07-30 19:35:00,69.3,69.3,30.04,NE,40,0.0,0.0,100,0.00,,,0.00,Wunderground v.1.15,2013-07-30 23:35:00,
2013-07-30 19:40:00,69.1,69.1,30.04,NE,40,0.0,0.0,100,0.00,,,0.00,Wunderground v.1.15,2013-07-30 23:40:00,
2013-07-30 19:50:00,68.9,68.9,30.04,NE,40,0.0,0.0,100,0.00,,,0.00,Wunderground v.1.15,2013-07-30 23:50:00,
2013-07-30 19:55:00,68.9,68.9,30.04,NE,40,0.0,0.0,100,0.00,,,0.00,Wunderground v.1.15,2013-07-30 23:55:00,
2013-07-30 20:05:00,69.3,69.3,30.04,NE,40,1.0,2.0,100,0.00,,,0.00,Wunderground v.1.15,2013-07-31 00:05:00,
2013-07-30 20:10:00,69.6,69.6,30.04,NE,40,2.0,3.0,100,0.00,,,0.00,Wunderground v.1.15,2013-07-31 00:10:00,
2013-07-30 20:20:00,70.1,70.1,30.04,NE,40,3.0,3.0,100,0.00,,,0.00,Wunderground v.1.15,2013-07-31 00:20:00,
2013-07-30 20:25:00,70.3,70.3,30.04,NNE,31,3.0,3.0,100,0.00,,,0.00,Wunderground v.1.15,2013-07-31 00:25:00,
2013-07-30 20:35:00,70.6,70.6,30.05,North,4,5.0,7.0,100,0.00,,,0.00,Wunderground v.1.15,2013-07-31 00:35:00,
2013-07-30 20:40:00,70.9,70.9,30.05,North,4,5.0,5.0,100,0.00,,,0.00,Wunderground v.1.15,2013-07-31 00:40:00,
2013-07-30 20:50:00,71.1,71.1,30.05,North,4,4.0,5.0,100,0.00,,,0.00,Wunderground v.1.15,2013-07-31 00:50:00,
2013-07-30 20:55:00,71.1,71.1,30.05,North,4,3.0,5.0,100,0.00,,,0.00,Wunderground v.1.15,2013-07-31 00:55:00,
2013-07-30 21:05:00,71.5,71.5,30.06,North,4,4.0,5.0,100,0.00,,,0.00,Wunderground v.1.15,2013-07-31 01:05:00,
2013-07-30 21:10:00,71.6,71.6,30.06,North,4,4.0,4.0,100,0.00,,,0.00,Wunderground v.1.15,2013-07-31 01:10:00,
2013-07-30 21:20:00,71.5,71.5,30.06,North,4,3.0,4.0,100,0.00,,,0.00,Wunderground v.1.15,2013-07-31 01:20:00,
2013-07-30 21:25:00,71.5,71.5,30.06,North,356,3.0,4.0,100,0.00,,,0.00,Wunderground v.1.15,2013-07-31 01:25:00,
2013-07-30 21:35:00,71.3,71.3,30.06,NW,321,4.0,6.0,100,0.00,,,0.00,Wunderground v.1.15,2013-07-31 01:35:00,
2013-07-30 21:40:00,70.9,70.9,30.06,South,185,4.0,5.0,100,0.00,,,0.00,Wunderground v.1.15,2013-07-31 01:40:00,
2013-07-30 21:50:00,70.4,70.4,30.06,NW,321,3.0,3.0,100,0.00,,,0.00,Wunderground v.1.15,2013-07-31 01:50:00,
2013-07-30 21:55:00,70.3,70.3,30.06,NW,321,3.0,3.0,100,0.00,,,0.00,Wunderground v.1.15,2013-07-31 01:55:00,
2013-07-30 22:05:00,70.3,70.3,30.06,NW,319,2.0,5.0,100,0.00,,,0.00,Wunderground v.1.15,2013-07-31 02:05:00,
2013-07-30 22:10:00,70.4,70.4,30.06,NW,321,2.0,2.0,100,0.00,,,0.00,Wunderground v.1.15,2013-07-31 02:10:00,
2013-07-30 22:20:00,70.3,70.3,30.06,NW,319,3.0,5.0,100,0.00,,,0.00,Wunderground v.1.15,2013-07-31 02:20:00,
2013-07-30 22:25:00,70.1,70.1,30.06,NW,321,3.0,5.0,100,0.00,,,0.00,Wunderground v.1.15,2013-07-31 02:25:00,
2013-07-30 22:35:00,69.8,69.8,30.06,NW,319,2.0,2.0,100,0.00,,,0.00,Wunderground v.1.15,2013-07-31 02:35:00,
2013-07-30 22:40:00,69.6,69.6,30.06,NW,319,2.0,2.0,100,0.00,,,0.00,Wunderground v.1.15,2013-07-31 02:40:00,
2013-07-30 22:50:00,69.6,69.6,30.06,NW,319,1.0,1.0,100,0.00,,,0.00,Wunderground v.1.15,2013-07-31 02:50:00,
2013-07-30 22:55:00,69.6,69.6,30.06,NW,321,0.0,1.0,100,0.00,,,0.00,Wunderground v.1.15,2013-07-31 02:55:00,
2013-07-30 23:05:00,69.4,69.4,30.05,NW,321,0.0,0.0,100,0.00,,,0.00,Wunderground v.1.15,2013-07-31 03:05:00,
2013-07-30 23:10:00,69.3,69.3,30.05,NW,319,0.0,0.0,100,0.00,,,0.00,Wunderground v.1.15,2013-07-31 03:10:00,
2013-07-30 23:20:00,69.3,69.3,30.05,NW,319,0.0,0.0,100,0.00,,,0.00,Wunderground v.1.15,2013-07-31 03:20:00,
2013-07-30 23:25:00,69.1,69.1,30.05,NW,319,0.0,0.0,100,0.00,,,0.00,Wunderground v.1.15,2013-07-31 03:25:00,
2013-07-30 23:35:00,69.1,69.1,30.05,NW,319,1.0,2.0,100,0.00,,,0.00,Wunderground v.1.15,2013-07-31 03:35:00,
2013-07-30 23:40:00,68.9,68.9,30.05,NW,321,1.0,1.0,100,0.00,,,0.00,Wunderground v.1.15,2013-07-31 03:40:00,
2013-07-30 23:50:00,68.9,68.9,30.05,NW,321,0.0,0.0,100,0.00,,,0.00,Wunderground v.1.15,2013-07-31 03:50:00,
2013-07-30 23:55:00,68.9,68.9,30.05,NW,319,0.0,0.0,100,0.00,,,0.00,Wunderground v.1.15,2013-07-31 03:55:00,